Voltar ao catálogo

DELTA 1 DEB

AtivoPO
NORAD 21365·DEBRIS·🇺🇸 United States

Lançado Jun 12, 1975 de Vandenberg Space Force Base

Loading…

Próximas Passagens (próximas 24 horas)

TLE

AtualizadoSource: Space-Track

Época: Sep 14, 2026, 10:18 UTC

1 21365U 75052CK  26257.42934183 -.00000542  00000-0 -15084-2 0  9995
2 21365  99.7211 313.7989 0230415 335.6040  36.1236 12.98519795672938

Acompanhe DELTA 1 DEB em tempo real com AllMySat

Download on the App Store